{"data":{"norad_id":48222,"intl_designator":"2021-031N","name":"ONEWEB-0192","alt_names":[],"object_type":"PAYLOAD","status":"ACTIVE","operator":null,"country":"UK","launch_date":"2021-04-25","launch_site_code":"VOSTO","launch_vehicle":null,"mission":null,"orbit_class":"UNKNOWN","rcs_meters":null,"size_class":null,"mass_kg":null,"dimensions":null,"purposes":["comms"],"wikipedia_slug":null,"has_3d_model":false,"image_url":null,"decayed_at":null,"tle_current":{"epoch":"2026-05-25T02:30:03.076128Z","epoch_age_seconds":76769,"freshness":"FRESH","line1":"1 48222U 21031N   26145.10420227  .00000201  00000+0  50783-3 0  9999","line2":"2 48222  87.8933 294.3087 0001722  98.3380 261.7945 13.14503842245145","mean_motion":13.14503842,"eccentricity":0.0001722,"inclination_deg":87.8933,"raan_deg":294.3087,"arg_perigee_deg":98.338,"mean_anomaly_deg":261.7945,"bstar":0.00050783,"rev_number":24514,"period_min":109.54703622692,"perigee_km":1204.4803952179,"apogee_km":1207.0922984186,"semimajor_km":7583.9233468183,"source":"CELESTRAK","updated_at":"2026-05-25T13:38:22.434955Z"}}}